Regional Weather Roundup
Issued by NWS Kansas City/Pleasant Hill, MO

Home | Current Version | Previous Version | Text Only | Print | Product List | Glossary On
Versions: 1 2 3 4 5 6 7 8 9 10 11 12 13 14 15 16 17 18 19 20 21 22 23 24 25 26 27 28 29 30 31 32 33 34 35 36 37 38 39 40 41 42 43 44 45 46 47 48 49 50
000
ASUS43 KEAX 230311
RWREAX

WEATHER ROUNDUP FOR EASTERN KANSAS AND NORTHWEST MISSOURI
NATIONAL WEATHER SERVICE KANSAS CITY/PLEASANT HILL MO
1000 PM CDT FRI AUG 22 2014

KSZ040-057-103>105-MOZ028-029-037-043-230400-
...KANSAS CITY METROPOLITAN AREA...

CITY           SKY/WX    TMP DP  RH WIND       PRES   REMARKS
K.C. INTL      CLOUDY    82  70  66 SE3       29.93R
K.C. DOWNTOWN  CLOUDY    84  66  54 CALM      29.91R
LEES SUMMIT    MOCLDY    79  69  71 CALM      29.94R
OLATHE - IXD   CLOUDY    78  69  73 SE5       29.93R
OLATHE - OJC   CLOUDY    78  67  68 S5        29.92R
LAWRENCE       CLOUDY    80  73  79 E3        29.91R

$$

MOZ001>008-011>017-020>025-030>033-038>040-044>046-053-054-230400-
...NORTHERN AND CENTRAL MISSOURI...

CITY           SKY/WX    TMP DP  RH WIND       PRES   REMARKS
ST. JOSEPH     CLOUDY    78  75  90 CALM      29.91S
MOSBY          CLOUDY    81  77  89 NW3       29.92R
WHITEMAN AFB   MOCLDY    80  72  76 SE2       29.92R
CLINTON        PTCLDY    79  73  83 CALM      29.92R
SEDALIA        MOCLDY    82  76  81 CALM      29.93R
WARSAW         NOT AVBL
MARSHALL       MOCLDY    84  81  89 E5        29.92S HX  98
CHILLICOTHE      N/A     82  77  84 NE3       29.93S HX  90
MOBERLY        PTCLDY    79  75  89 E6        29.95R HAZE
KIRKSVILLE     CLEAR     78  76  93 N5        29.97R FOG

$$

MOZ041-047>049-056>058-063>065-088>090-097-230400-
...EASTERN AND SOUTHERN MISSOURI...

CITY           SKY/WX    TMP DP  RH WIND       PRES   REMARKS
ST. LOUIS INTL MOCLDY    85  77  77 E3        29.95R HX  95
SPIRIT OF STL  PTCLDY    80  77  90 CALM      29.92R
COLUMBIA       PTCLDY    82  77  84 NE6       29.93R HX  90
JEFFERSON CITY PTCLDY    83  78  85 CALM      29.90R HX  93
MEXICO         PTCLDY   N/A N/A N/A CALM      29.94R
HANNIBAL       CLEAR     81  77  89 NE5       29.96S
ROLLA          CLEAR     83  69  62 S9        29.94R
LEBANON        PTCLDY    84  68  58 S5        29.98R
OSAGE BEACH    CLEAR     81  72  74 CALM      29.93R
SPRINGFIELD    PTCLDY    83  69  62 S8        29.96R
BRANSON        CLEAR     82  73  74 S6        30.00S
NEVADA         CLEAR     82  70  65 S5        29.93S
JOPLIN         CLEAR     85  71  63 S9        29.94R HX  90
WEST PLAINS    CLEAR     81  71  71 S3        30.00R

$$

IAZ060-094-KSZ022-034>040-054-083-096-NEZ052-066-093-230400-
...KANSAS...SOUTHEAST NEBRASKA AND IOWA...

CITY           SKY/WX    TMP DP  RH WIND       PRES   REMARKS
TOPEKA         CLOUDY    83  72  69 E3        29.90R
MANHATTAN      CLOUDY    82  64  54 CALM      29.88S
EMPORIA        PTCLDY    75  68  78 SE7       29.91R
CHANUTE        CLEAR     83  71  67 SE8       29.92R
WICHITA        PTCLDY    86  67  52 S13       29.88R
OMAHA          MOCLDY    77  74  90 CALM      29.94R
LINCOLN        PTCLDY    81  70  69 SE7       29.91S
FALLS CITY     CLOUDY    76  74  93 E6        29.90F
LAMONI         MOCLDY    77  75  93 CALM      29.95F
DES MOINES     CLOUDY    82  75  79 CALM      29.92F

$$



USA.gov is the U.S. government's official web portal to all federal, state and local government web resources and services.